Powrót do katalogu

FENGYUN 1C DEB

AktywnyPO
NORAD 37067·DEBRIS·🇨🇳 China

Wystrzelony May 10, 1999 z Taiyuan Satellite Launch Center

Loading…

Następne Przeloty (najbliższe 24 godziny)

TLE

ŚwieżeSource: Space-Track

Epoka: Sep 12, 2026, 14:24 UTC

1 37067U 99025EFB 26255.60062669  .00006603  00000-0  38711-2 0  9990
2 37067  99.5033 214.5954 0139357  79.6687 282.0155 14.03779549612477

Śledź FENGYUN 1C DEB w czasie rzeczywistym z AllMySat

Download on the App Store